Wind_Speed
14 15 14 14 14 12 12 12 12 11 11 11 11 11 11 12 12 12 12 12 12 13 14 14 14 13 11 10 9 9 11 12 13 13 13 13 12 12 14 14 14 14 13 14 14 15 15 16 17 18 20 20 19 18 17 18 18 17 16 16 16 15 14 16 17 17 16 16 16 15 15 15 15 16 18 19 19 18 19 19 19 19 18 18 19
17 16 15 15 14 12 11 11 11 10 11 11 11 11 11 11 12 12 12 12 12 12 13 13 13 12 12 11 10 9 10 11 12 12 11 12 11 12 13 13 14 14 13 13 14 15 15 16 17 18 19 19 18 17 17 18 17 17 16 16 16 15 14 14 15 16 15 15 16 16 15 14 15 16 17 19 19 19 19 19 19 19 18 17 18
18 17 15 15 13 11 11 11 11 10 10 11 11 10 10 10 11 11 11 11 11 11 11 12 12 12 12 11 11 10 10 10 11 11 10 11 11 12 13 13 13 13 14 13 14 15 15 16 16 18 19 18 18 17 18 18 18 17 17 17 16 15 14 13 13 14 15 15 15 15 14 14 15 16 18 18 18 18 19 19 19 19 18 17 17
18 18 15 14 13 12 11 11 10 9 10 10 10 9 9 10 10 10 10 10 10 10 11 11 11 12 12 12 11 11 10 10 10 10 10 11 11 12 14 14 13 13 14 14 14 15 15 15 16 17 18 18 18 18 18 18 18 17 17 17 16 15 14 13 13 14 15 15 16 15 14 14 15 16 18 18 17 18 18 18 18 18 18 17 16
19 18 16 15 13 12 11 11 9 9 10 9 9 8 9 10 10 9 9 9 9 10 10 10 11 12 12 12 12 11 11 10 10 10 10 11 11 11 13 14 13 14 14 14 14 15 15 15 15 17 18 18 18 18 19 18 18 16 15 16 16 15 14 13 13 14 16 16 17 17 15 15 16 16 17 17 16 17 17 17 18 18 17 17 16
19 18 17 15 14 13 12 11 9 9 9 8 9 10 10 9 9 9 9 9 9 10 10 10 11 11 11 12 12 12 11 11 10 10 10 11 12 11 12 13 13 14 14 13 14 15 15 16 16 17 18 17 18 19 19 18 17 16 15 15 15 15 14 14 13 15 17 18 18 17 16 16 16 17 16 16 16 16 16 16 17 17 17 17 16
19 19 17 15 15 14 12 10 9 10 9 9 10 10 10 9 9 9 9 9 9 10 10 10 10 10 11 12 12 11 12 11 10 10 11 12 12 12 12 12 12 14 14 13 13 14 15 16 16 17 18 17 17 19 19 18 17 16 16 15 15 15 14 14 15 16 17 18 18 17 17 16 16 16 15 15 16 15 15 16 17 17 16 16 16
20 19 17 16 16 14 11 10 10 9 9 10 10 10 10 9 9 10 9 9 10 9 9 10 10 10 11 12 11 10 12 12 9 9 10 11 11 12 11 12 12 13 14 12 13 14 15 16 17 17 18 17 17 18 18 16 15 15 15 15 15 15 15 16 16 17 18 17 17 17 17 16 15 15 15 14 15 15 15 15 16 16 16 15 15
20 18 17 17 16 14 11 11 10 10 10 10 11 10 10 10 10 10 10 9 10 10 10 10 10 10 10 11 11 10 12 12 11 10 10 11 11 12 12 13 12 13 13 13 13 15 15 16 17 18 18 18 17 16 16 14 14 16 16 15 16 16 16 16 16 17 17 17 16 16 16 16 14 14 13 13 13 14 15 16 15 15 14 14 14
20 18 18 17 15 13 11 11 10 10 11 11 11 11 10 10 10 10 10 9 9 10 10 10 11 10 9 10 11 11 12 13 13 12 12 11 11 12 13 13 13 13 13 13 13 15 16 16 17 17 16 17 17 16 15 14 14 16 16 15 15 15 15 15 16 16 16 16 16 15 15 14 14 13 12 12 12 13 14 14 14 13 13 13 13
20 19 18 16 15 13 12 11 11 11 11 12 11 11 11 10 10 10 9 9 9 10 10 10 10 9 9 10 10 11 11 12 13 13 13 12 12 13 14 14 13 13 13 14 14 14 15 16 16 16 15 16 17 16 16 15 14 15 15 15 15 14 14 15 15 15 15 15 14 14 13 12 13 13 12 12 12 13 13 13 13 13 13 12 12
21 20 18 16 14 13 13 11 11 11 12 12 11 11 11 11 10 9 9 9 10 10 11 11 10 9 8 9 10 11 10 10 11 13 12 11 12 14 15 14 14 14 14 14 14 14 14 15 16 16 15 15 16 15 15 14 14 15 15 15 14 12 12 13 14 15 14 14 14 13 13 13 13 13 13 12 12 12 13 13 13 12 12 12 11
22 20 17 15 14 13 12 11 12 11 12 12 11 11 10 10 10 9 10 10 10 9 10 11 10 8 8 8 9 11 11 11 11 13 13 11 12 14 14 14 15 15 15 14 14 14 14 14 15 16 16 15 15 14 14 14 14 15 15 14 12 11 10 12 14 14 14 14 14 13 13 13 12 12 12 12 12 12 11 12 11 11 11 10 10
23 20 17 15 14 12 11 11 12 11 11 11 11 11 10 10 9 10 10 10 10 9 10 10 10 8 7 8 9 11 12 13 13 14 15 13 13 14 14 15 16 17 16 15 14 14 14 14 15 16 16 16 15 14 14 15 14 14 14 12 10 9 10 12 13 14 14 13 13 13 13 12 11 11 11 11 11 11 11 10 10 10 10 9 9
23 20 17 16 14 12 11 11 11 11 11 11 11 11 11 10 9 9 9 10 10 10 10 10 9 8 8 9 9 11 12 14 14 16 18 17 16 15 16 17 17 17 17 16 15 14 14 15 15 15 16 15 14 13 14 15 14 13 12 10 8 8 10 12 13 14 13 13 13 13 12 11 10 10 10 10 10 9 9 9 9 9 8 8 7
21 19 17 16 13 12 12 11 11 11 10 11 10 10 10 9 9 9 9 10 9 10 10 10 9 8 9 9 9 10 12 13 13 16 18 18 17 17 18 18 18 17 16 16 15 14 14 14 14 14 14 15 14 13 13 13 12 11 10 8 7 7 10 12 13 13 12 12 12 12 12 10 9 10 9 9 9 8 8 8 8 7 7 7 7
21 19 17 15 13 12 12 12 11 10 10 10 10 10 9 9 9 9 9 9 9 10 9 9 9 8 8 8 9 10 12 12 13 14 16 17 16 16 17 18 17 16 15 14 14 14 14 14 13 13 13 14 13 12 11 10 10 10 9 7 6 7 10 11 12 12 11 11 11 11 10 9 9 8 8 8 8 8 8 8 7 7 7 7 7
20 18 16 15 13 12 12 12 11 11 10 9 10 9 8 8 9 9 10 10 9 9 9 8 8 9 9 9 9 11 13 12 13 14 15 16 15 16 17 16 16 15 14 13 13 13 14 13 13 13 13 12 11 11 10 8 7 8 8 7 6 7 9 10 11 10 10 10 9 9 9 8 8 8 8 8 7 7 7 7 6 6 6 6 6
20 18 16 15 13 13 12 12 12 11 10 9 9 9 9 9 9 9 10 10 10 10 9 8 8 9 9 9 10 11 13 13 14 15 15 16 15 15 16 15 15 14 13 12 12 12 13 13 12 12 11 10 10 9 8 8 7 7 7 7 6 6 8 8 9 9 9 9 9 9 9 8 8 7 7 7 7 6 6 6 5 5 5 5 5
19 17 16 15 14 13 12 12 12 11 11 10 9 10 9 9 9 9 10 10 10 10 9 9 9 8 9 10 10 12 13 13 14 15 15 15 15 15 15 14 13 13 12 12 11 11 12 12 12 11 10 9 9 8 7 8 8 7 7 7 6 5 6 6 7 7 7 8 8 8 8 7 7 6 6 6 5 5 5 5 5 4 4 4 4
18 17 16 15 14 13 13 12 12 11 11 11 10 10 9 9 10 9 9 10 10 11 10 10 10 9 10 11 11 12 14 14 14 15 15 14 14 14 13 13 12 11 11 10 11 11 11 11 11 10 9 9 8 7 6 7 8 7 8 6 4 4 4 5 5 5 5 6 6 6 6 5 5 5 5 4 4 4 4 4 4 4 3 3 3
18 17 16 15 14 14 14 13 13 12 11 11 10 10 10 10 11 10 9 9 10 10 10 10 10 10 11 12 12 12 13 14 14 14 15 14 13 13 12 11 11 11 11 11 11 11 11 11 11 10 10 10 9 8 6 6 7 7 7 4 2 3 3 2 3 3 3 4 4 4 4 4 4 3 3 3 2 2 2 2 3 3 3 3 3
19 19 17 16 15 15 14 14 14 13 12 11 10 10 10 11 11 10 10 10 10 10 10 10 10 11 13 13 13 12 13 13 13 14 14 13 13 12 11 11 11 11 11 12 12 12 12 12 12 12 12 11 11 9 6 5 6 6 6 4 2 1 0 1 1 3 3 3 3 4 4 3 3 3 2 2 1 1 1 1 1 1 1 2 2
20 19 18 16 16 16 15 15 15 14 13 11 11 11 11 11 11 10 10 11 11 10 10 11 11 11 13 13 13 13 13 12 12 12 13 13 12 12 11 11 11 12 12 12 12 12 12 13 13 13 12 11 11 9 6 5 5 6 6 4 2 2 2 2 2 3 3 3 3 3 3 3 3 2 1 1 1 1 1 1 0 0 1 2 2
20 19 19 18 17 17 16 16 15 14 13 12 12 12 12 11 10 10 11 11 11 11 11 11 11 11 12 12 12 12 11 11 12 13 13 13 12 12 12 12 12 12 12 11 11 11 11 12 12 11 10 10 9 7 4 4 5 6 6 5 4 3 3 3 2 4 4 3 3 3 3 3 2 2 1 2 2 2 2 2 1 2 2 3 4
20 20 20 19 18 17 17 16 15 15 13 12 12 12 12 11 11 11 11 11 11 11 11 11 10 10 11 10 11 11 11 11 12 13 13 13 13 13 12 12 12 12 12 11 11 11 11 10 10 9 8 7 6 5 4 4 5 6 7 6 6 5 4 3 3 3 4 4 4 3 3 3 2 2 2 3 3 3 3 3 3 3 3 4 5
21 21 20 20 19 18 17 16 16 15 13 12 12 12 12 12 11 11 11 11 11 11 10 10 10 9 9 10 10 11 11 12 13 13 13 13 13 13 13 12 12 12 11 11 10 10 9 8 7 6 5 4 4 5 5 5 6 7 7 7 6 6 5 4 3 3 4 4 4 4 4 3 3 3 3 4 4 4 4 4 4 4 4 4 5
21 21 21 21 20 18 17 16 16 16 15 14 14 14 13 13 12 11 11 11 10 10 10 10 10 9 9 10 10 11 12 12 13 13 13 13 13 12 11 10 10 10 9 8 8 7 5 4 3 2 2 3 4 5 6 7 8 8 8 8 7 7 6 4 4 3 4 5 4 4 4 4 4 4 4 4 4 5 5 5 5 5 5 5 6
21 21 22 21 21 19 18 17 16 16 16 15 15 15 14 14 13 12 11 10 10 10 10 10 10 10 10 10 10 11 11 12 12 13 12 11 10 9 9 8 8 7 7 6 5 4 3 1 1 3 4 4 3 4 4 6 8 9 10 9 8 8 7 4 3 2 2 3 4 4 4 4 4 4 4 4 4 5 5 5 6 6 6 6 7
22 22 23 22 21 19 18 17 16 17 17 16 15 15 15 14 13 12 11 10 10 10 11 10 10 10 10 9 9 10 11 11 11 11 9 8 7 7 7 7 6 6 5 5 4 3 2 2 3 3 3 2 1 2 2 3 4 6 9 10 8 7 6 4 3 3 1 1 2 3 4 4 4 4 4 4 5 5 5 6 6 6 7 7 8
21 22 23 23 21 20 18 17 17 17 17 17 16 15 15 14 12 12 10 9 10 11 11 10 10 10 9 8 9 9 10 9 8 8 6 6 5 5 6 6 5 5 4 4 4 3 3 2 2 3 2 2 2 2 2 3 4 4 5 7 6 6 5 4 2 3 2 1 2 2 3 3 4 4 5 5 5 5 6 6 7 7 7 8 8
22 23 23 23 22 20 19 18 18 18 17 16 16 15 14 13 12 11 10 10 10 11 12 11 11 10 8 8 8 9 8 7 7 7 6 6 5 5 5 5 5 4 3 3 3 3 3 2 2 3 3 2 2 3 3 4 6 5 4 5 5 5 4 3 2 2 2 3 3 3 3 3 3 4 4 5 5 5 6 6 7 7 8 8 9
23 23 23 23 22 21 21 19 19 18 17 17 16 16 14 13 12 11 11 11 11 12 13 12 11 10 8 7 7 7 7 7 7 7 7 6 6 6 5 5 4 3 3 2 3 3 2 2 3 4 4 3 2 3 4 5 7 7 6 6 6 5 4 4 3 2 2 2 3 4 4 3 3 4 4 4 5 4 5 5 5 6 7 8 8
23 22 23 23 22 22 22 20 19 18 17 17 16 16 14 13 12 11 12 12 12 13 13 12 11 10 9 7 6 6 5 7 7 7 7 6 6 6 5 4 3 3 2 2 2 2 2 3 3 4 4 3 3 3 4 5 7 9 8 8 8 6 5 5 5 4 3 2 3 4 4 4 3 4 4 4 4 4 4 4 4 5 5 6 6
23 23 23 22 21 21 22 21 20 18 17 17 17 16 15 14 13 12 13 12 12 13 13 13 12 10 9 8 6 5 5 7 8 8 7 8 7 6 4 4 3 3 2 1 1 2 2 3 3 4 4 3 3 2 3 5 6 7 9 9 9 8 7 7 6 6 5 4 4 4 4 4 3 3 4 4 5 5 4 4 4 5 5 5 6
24 24 24 22 21 21 21 21 20 19 17 17 16 16 15 14 13 13 12 12 12 13 13 13 12 11 10 8 7 7 7 7 9 8 8 8 7 5 5 5 4 3 1 0 1 2 3 3 3 5 5 4 3 1 1 4 5 5 6 8 8 8 7 6 6 5 5 5 5 5 5 5 5 5 5 5 5 5 5 5 5 5 5 6 6
25 24 24 23 22 21 20 20 20 20 18 18 17 16 15 13 13 12 11 11 12 12 13 12 12 11 10 9 8 9 9 9 8 8 8 8 6 5 5 5 3 2 1 1 2 2 3 3 3 5 6 6 4 2 1 2 4 4 4 5 5 5 6 5 5 6 6 6 6 6 6 6 7 7 7 7 7 6 6 6 6 6 6 6 7
26 25 24 24 22 20 20 20 20 20 19 19 18 16 15 13 12 12 12 12 12 13 12 12 10 10 11 11 10 10 10 9 9 8 9 8 7 6 5 4 3 2 2 3 3 2 3 3 3 4 5 6 4 3 3 2 4 4 4 4 4 5 6 6 6 6 7 8 8 8 9 9 9 9 9 9 9 8 8 7 7 7 7 8 8
26 26 25 25 23 21 20 20 20 21 21 20 18 17 15 13 13 13 14 14 13 14 13 12 10 10 11 11 10 11 11 10 9 9 9 8 7 6 5 5 5 4 4 4 3 2 3 3 3 3 5 5 4 3 3 5 5 5 4 5 5 5 6 7 8 8 9 10 10 11 11 11 12 11 11 11 10 10 9 9 8 9 8 8 9
27 27 26 25 23 22 21 21 21 21 22 20 19 18 15 14 15 15 16 16 15 14 13 11 10 10 10 10 11 12 12 11 9 8 8 7 6 7 7 7 6 6 4 4 2 2 2 2 2 3 4 4 4 4 2 4 6 7 6 6 6 5 6 7 8 9 11 12 12 13 14 14 14 13 12 12 12 11 11 10 9 9 9 8 8
27 28 27 26 25 24 23 22 22 22 22 22 21 19 17 17 18 18 17 17 16 14 13 11 10 10 10 11 12 12 12 10 9 8 8 8 8 8 8 8 7 7 5 3 3 3 2 2 3 4 5 4 5 4 3 3 2 4 5 6 6 7 7 8 9 10 11 13 14 15 15 16 15 14 13 13 12 12 11 10 9 9 9 8 8
27 29 28 27 26 25 24 23 23 23 23 23 22 20 20 20 20 19 18 18 17 15 14 12 11 10 11 12 12 13 12 11 9 8 8 9 9 10 9 8 7 8 6 4 4 4 3 3 3 4 4 5 5 4 4 4 2 1 3 5 6 6 7 8 9 10 11 13 13 14 15 16 15 14 13 13 13 12 11 10 9 8 7 8 9
29 30 29 28 27 26 25 24 24 25 24 23 22 20 21 21 18 17 18 17 17 16 14 12 11 11 11 11 12 13 13 11 10 9 9 9 10 10 9 7 7 8 8 6 5 5 4 3 3 3 3 5 4 2 4 5 3 2 3 4 3 5 6 6 8 10 11 12 13 13 14 15 14 14 14 14 13 12 10 9 8 7 7 8 9
30 30 30 29 27 27 26 25 26 25 24 23 21 20 21 20 17 16 16 16 16 17 15 13 13 12 11 11 11 12 13 11 10 10 10 9 9 9 8 7 7 7 8 7 6 5 4 2 1 2 3 5 5 3 3 5 4 2 3 1 1 3 2 4 11 12 8 9 11 12 13 14 14 13 14 15 14 13 11 10 9 8 8 8 9
29 31 31 31 29 29 28 27 26 25 25 23 21 20 21 20 18 17 17 16 16 17 17 15 15 14 13 12 11 11 12 12 11 10 10 9 9 9 8 7 6 7 7 7 6 6 4 2 1 1 2 5 5 4 3 3 3 2 3 1 1 2 2 4 9 9 8 9 9 10 12 13 13 13 13 14 14 14 12 11 10 10 9 8 8
30 32 33 32 31 30 30 28 27 26 25 22 21 22 21 20 19 19 19 17 16 18 19 17 16 15 13 12 11 11 11 12 11 11 10 9 9 9 8 7 6 6 7 7 7 6 5 3 2 1 1 3 4 3 2 3 2 3 5 3 2 1 3 4 3 4 9 10 9 9 9 9 9 9 10 11 11 11 11 10 10 10 8 7 7
31 32 32 32 32 31 31 30 28 27 25 23 22 23 21 20 20 20 20 19 18 18 18 17 15 13 12 11 11 11 10 10 11 11 11 9 9 8 8 8 7 6 7 8 6 5 5 4 3 2 1 2 3 2 2 3 3 3 5 4 4 3 3 4 1 1 6 7 10 13 9 7 7 7 7 7 7 8 8 8 9 8 7 6 6
31 30 30 30 31 32 32 31 29 27 26 24 23 23 21 20 20 20 20 20 19 18 17 16 14 12 12 11 10 11 10 10 11 11 10 9 9 8 8 8 7 6 7 7 5 5 5 4 4 4 2 1 2 2 2 3 4 5 5 4 5 5 5 5 2 1 1 2 8 11 12 11 7 6 7 7 7 7 7 6 6 6 5 5 6
31 31 31 31 32 32 32 31 30 28 27 25 24 24 23 21 20 20 20 19 18 17 16 16 15 14 12 12 11 11 11 11 10 10 9 8 8 8 7 8 7 7 7 6 5 5 5 5 4 4 3 3 3 3 2 2 3 5 6 6 7 6 7 5 3 4 2 0 3 5 10 13 8 6 7 8 8 7 6 5 5 4 4 5 6
31 32 31 31 32 33 32 31 31 29 28 27 26 25 25 22 20 20 20 19 19 18 17 17 16 16 14 13 12 12 11 11 11 10 9 8 7 7 8 8 7 7 7 6 6 6 6 5 4 4 5 6 5 4 4 2 2 4 6 7 8 8 7 4 5 8 5 2 2 4 8 10 7 7 8 7 6 6 5 5 4 4 3 5 6
30 30 30 31 32 33 33 32 31 29 27 27 27 26 26 24 22 20 20 20 20 19 19 19 18 17 16 15 14 12 12 12 11 10 9 9 8 8 8 8 7 7 8 7 7 7 6 6 5 5 6 7 7 6 5 4 3 4 5 6 7 8 7 5 9 10 6 3 3 5 9 9 6 6 8 7 4 6 6 6 5 4 3 5 7
Wind_Direction
150 136 133 128 123 126 126 126 121 118 111 106 101 99 100 102 106 106 109 109 111 113 116 120 122 124 123 123 117 111 105 106 109 113 118 118 117 115 114 113 110 110 109 109 109 108 109 111 114 115 119 124 122 116 113 114 111 110 110 111 111 109 106 105 106 106 105 105 101 99 99 100 102 104 103 100 99 99 101 101 101 98 95 93 92
147 138 136 130 125 127 131 129 121 116 110 108 103 101 102 105 106 104 107 109 112 114 117 120 122 125 126 127 123 117 112 109 111 118 124 122 121 122 121 119 114 112 110 108 109 109 109 112 116 118 121 125 123 118 114 113 112 111 110 112 113 111 109 107 108 107 105 103 102 101 101 103 103 104 102 100 99 99 100 100 101 100 98 96 95
142 141 139 133 127 126 133 129 122 118 115 112 107 105 107 109 106 104 107 110 112 113 118 121 123 126 128 129 127 124 120 115 115 121 125 125 126 129 130 125 116 113 113 111 110 109 110 114 118 120 122 125 121 117 116 115 115 115 114 114 114 113 112 110 108 106 106 104 104 104 103 103 102 104 103 101 101 101 100 100 101 101 101 99 97
144 143 142 136 128 127 131 129 124 121 116 110 106 105 109 110 106 107 109 109 110 114 118 119 123 126 128 130 129 128 124 119 121 123 127 129 127 131 133 126 119 116 115 111 110 110 112 116 118 119 120 123 122 120 120 120 118 117 116 115 114 113 112 112 110 108 109 106 105 104 100 99 101 104 105 103 102 102 100 100 100 99 98 97 97
146 145 145 138 129 129 132 130 128 123 113 106 108 109 109 109 108 109 107 107 108 114 117 118 123 125 127 129 128 128 125 123 126 128 130 131 126 128 129 125 123 122 116 112 113 114 117 118 117 118 119 121 124 127 127 124 121 117 116 114 113 112 112 110 109 109 110 107 104 102 98 98 101 103 104 104 102 101 100 100 99 97 96 95 96
147 147 146 138 131 133 133 133 130 119 107 105 112 111 110 111 112 111 107 106 109 115 116 118 121 121 122 121 123 129 128 126 131 132 132 133 130 129 126 124 127 127 120 115 117 119 122 122 119 120 121 120 125 130 131 127 121 117 116 114 113 112 113 112 110 111 111 107 103 100 99 99 101 102 103 102 102 101 100 100 99 97 96 96 96
148 147 144 139 135 133 135 135 123 112 107 111 112 112 113 115 116 113 111 110 112 115 116 118 119 117 117 116 122 133 127 122 133 139 134 131 131 132 128 127 131 128 122 120 121 121 123 124 122 121 121 119 122 129 132 127 119 118 118 116 114 112 112 112 113 113 111 107 103 101 98 96 96 100 102 101 100 101 100 100 98 97 97 97 96
149 148 145 140 136 134 138 132 120 114 115 115 115 117 117 119 120 116 115 115 117 117 118 118 113 110 111 113 121 130 121 120 135 141 131 127 132 134 132 132 130 124 121 123 123 123 123 124 122 119 120 119 120 125 129 124 119 121 120 116 114 113 112 112 114 115 113 110 107 104 101 97 97 98 101 101 102 103 101 99 96 95 96 97 97
148 147 146 142 136 136 138 131 124 121 120 119 120 122 123 125 122 119 119 118 119 119 119 116 110 106 106 110 116 123 119 123 134 137 132 131 136 134 133 133 125 121 124 126 125 125 124 122 118 117 119 120 120 124 128 125 123 123 119 116 114 113 113 114 117 116 114 112 109 107 106 107 106 103 102 103 104 104 102 99 97 96 96 96 95
147 147 147 141 136 137 137 133 127 123 121 123 125 126 128 127 122 119 119 118 119 119 118 114 110 106 107 110 113 117 117 126 135 137 139 138 136 131 134 132 124 126 129 128 125 126 123 118 113 112 116 117 120 126 129 127 124 121 117 115 113 115 117 119 120 118 115 112 110 109 110 113 111 107 106 105 103 101 100 99 98 98 97 96 96
148 148 146 139 137 139 138 133 127 125 127 129 128 128 129 125 121 120 120 121 120 119 116 112 109 108 111 112 111 112 113 126 134 133 136 137 132 131 135 130 126 129 129 127 126 126 121 116 112 113 118 118 120 125 127 127 126 122 120 118 115 118 123 125 124 121 118 116 115 113 112 113 110 109 107 103 101 101 100 99 99 98 98 98 98
149 147 144 140 140 141 138 133 131 132 130 130 128 128 128 124 123 122 122 123 120 119 116 110 108 109 111 112 113 111 111 122 127 125 129 135 133 132 132 129 128 129 126 124 125 124 118 115 113 115 120 120 121 123 124 125 125 125 125 123 119 121 127 129 128 125 122 120 118 115 114 112 111 110 107 104 102 101 99 98 97 96 96 97 97
147 147 145 143 143 142 136 134 136 133 130 128 128 129 127 125 124 123 124 123 122 118 114 111 109 107 108 113 116 115 118 124 123 121 126 133 130 127 127 125 127 126 123 121 122 122 118 116 116 119 123 123 122 120 121 120 118 121 125 123 120 123 128 130 128 127 125 122 118 115 112 109 111 110 108 105 103 100 98 97 96 95 96 96 96
147 147 147 145 143 140 136 136 135 132 131 129 129 130 128 127 125 126 127 125 124 118 111 108 103 102 106 111 115 118 123 128 132 132 132 133 129 126 125 126 127 124 122 121 122 120 118 118 119 124 124 122 121 119 119 116 114 117 120 119 120 126 131 133 131 130 127 123 119 116 113 111 112 111 109 105 102 100 98 98 97 97 96 95 95
147 147 148 146 142 139 139 138 134 133 132 129 129 129 128 126 124 128 129 128 125 117 110 104 102 104 104 104 110 117 124 131 138 138 136 137 134 132 129 129 129 125 123 123 123 121 121 119 118 119 116 115 116 116 115 112 112 115 117 116 118 124 131 136 136 135 130 124 121 118 114 111 112 111 109 105 102 101 100 99 97 97 96 95 94
147 149 149 145 141 142 142 139 135 133 132 130 127 125 125 125 126 127 126 129 122 113 108 104 105 103 101 104 111 116 122 127 133 134 131 132 132 130 128 128 126 123 123 123 123 124 123 120 117 114 110 111 111 110 110 107 107 112 117 118 116 119 129 139 140 137 131 128 125 122 116 114 115 112 111 109 108 106 104 101 98 99 97 95 93
149 151 149 145 144 144 143 138 135 131 132 132 127 124 128 132 132 129 128 128 121 113 109 109 106 102 103 107 110 111 115 117 121 123 121 123 125 125 125 124 122 121 121 121 124 126 125 123 120 116 111 111 111 109 108 107 110 118 124 119 112 120 132 140 140 136 133 131 128 125 121 120 119 113 113 112 110 109 105 101 99 97 94 92 92
150 152 150 149 148 147 145 140 139 136 135 133 130 130 133 136 134 135 133 130 125 117 114 113 107 106 109 110 109 107 109 109 113 115 115 118 120 119 120 120 119 119 119 120 123 126 127 125 123 120 115 112 111 110 112 118 122 126 129 119 111 125 137 140 138 136 134 132 129 126 121 119 117 113 113 111 109 106 104 102 100 98 96 96 93
152 155 154 152 151 150 148 144 144 141 137 134 136 139 137 135 136 139 135 131 129 123 120 113 105 105 106 107 108 104 105 106 109 112 113 115 115 116 116 116 117 117 118 119 121 125 128 128 128 126 121 114 109 108 113 122 123 130 135 127 120 132 141 139 136 136 135 131 129 125 120 117 115 114 112 109 107 102 101 102 101 101 100 99 94
154 158 158 156 155 154 151 148 146 142 140 136 140 140 135 136 136 138 137 135 133 128 123 110 102 100 98 100 100 100 102 103 106 110 111 112 114 116 115 115 116 118 119 122 125 129 131 131 131 131 127 118 111 106 110 119 120 130 138 131 124 130 138 138 138 138 137 136 133 128 123 121 116 114 111 105 104 101 103 104 103 104 100 96 88
158 162 163 162 160 157 154 152 149 147 144 138 140 136 135 140 136 136 136 134 132 129 122 110 103 97 96 98 97 100 103 103 106 108 108 110 112 112 114 115 116 118 120 123 128 132 135 135 134 133 131 125 119 112 114 120 124 136 144 139 121 114 126 139 149 147 145 144 140 137 132 130 124 122 120 109 107 105 103 103 100 95 89 83 74
162 164 168 167 163 161 157 156 154 152 147 141 140 138 141 140 134 135 132 132 133 128 120 111 108 104 103 100 99 101 104 106 107 107 108 110 111 111 114 116 117 120 124 129 133 139 143 145 145 145 143 140 135 129 123 122 133 144 153 165 142 114 116 132 169 168 162 160 154 152 147 141 133 131 127 116 114 105 100 103 95 78 65 54 45
165 167 170 170 167 164 160 160 158 155 151 145 144 140 138 135 135 138 133 134 135 129 120 114 113 110 105 100 98 100 103 104 106 107 109 110 111 114 115 118 124 126 130 134 137 143 148 152 155 157 156 153 150 147 141 136 151 155 163 193 206 190 90 33 220 203 190 185 175 167 163 159 147 140 139 124 117 107 121 129 100 68 26 10 10
169 170 170 171 171 166 163 163 160 158 154 149 148 143 139 139 141 141 136 136 136 133 126 121 118 112 107 103 103 106 107 107 109 112 114 115 117 119 120 125 131 131 134 137 140 146 152 157 161 163 163 162 162 163 157 154 169 177 185 203 231 259 276 308 262 217 210 205 193 182 178 179 166 157 180 188 184 213 235 225 124 326 321 324 322
170 170 171 171 173 169 165 165 163 162 158 155 153 150 149 147 145 143 140 140 141 140 133 127 122 117 114 112 112 113 114 117 119 120 119 121 123 124 125 128 130 129 132 135 138 143 150 158 162 166 170 172 176 180 175 173 185 200 211 221 241 262 268 282 268 224 220 216 210 208 201 199 183 182 232 244 240 248 256 260 270 293 306 307 303
169 170 173 173 173 170 167 166 166 165 162 159 157 157 157 152 149 147 145 145 147 144 137 132 127 125 122 119 119 117 120 125 126 125 123 124 125 126 127 127 127 126 129 131 134 139 146 154 160 168 178 186 194 201 197 190 195 210 227 231 238 251 260 277 281 235 225 225 229 230 227 229 219 212 238 253 258 260 262 268 274 291 297 294 297
170 172 175 174 174 173 171 169 170 168 164 163 161 161 161 156 152 150 151 151 151 148 143 139 136 135 131 125 124 123 126 129 129 128 126 127 127 128 129 129 129 129 129 132 135 141 148 156 166 179 198 219 232 231 221 212 207 209 226 236 239 246 254 278 302 258 228 231 237 241 247 256 262 259 264 266 269 270 272 276 276 280 280 281 290
170 172 175 175 177 177 174 173 173 170 166 166 164 162 161 158 155 153 155 156 156 154 151 149 146 144 140 133 129 131 132 132 132 131 131 132 131 131 133 134 136 135 136 138 141 145 152 161 177 222 280 292 276 251 233 223 217 213 223 241 243 243 250 272 308 284 236 236 240 249 259 268 278 283 283 279 278 279 282 282 280 276 274 277 281
171 172 175 177 179 179 178 177 176 173 171 169 166 163 162 161 159 158 157 159 161 160 160 157 151 150 147 139 136 138 140 139 138 137 136 135 136 137 139 141 142 141 140 139 141 138 133 101 13 348 341 332 295 249 232 221 221 221 227 240 247 246 250 262 308 312 243 240 250 259 272 278 284 288 292 290 281 280 283 285 286 282 277 278 277
175 174 176 177 180 182 181 181 179 176 175 174 170 165 164 164 163 163 161 160 162 164 166 162 155 153 151 144 142 144 146 146 146 144 143 141 143 146 149 152 151 145 137 131 127 112 80 43 18 360 357 348 298 229 214 217 218 218 223 233 241 245 248 259 312 342 321 262 278 282 288 292 294 294 296 298 293 289 290 290 291 287 284 283 280
178 176 178 178 180 183 182 184 181 177 178 177 175 170 168 167 166 168 166 163 167 171 172 168 163 158 156 153 150 153 154 155 159 162 165 162 158 158 160 163 160 150 138 128 113 90 75 55 30 14 9 340 291 229 229 262 248 216 213 222 226 230 238 253 308 357 19 45 24 341 316 309 308 306 305 303 303 300 295 293 292 289 288 287 286
181 181 181 180 181 182 182 184 181 178 180 180 178 175 174 172 170 172 171 168 171 174 174 172 170 166 167 165 160 166 173 176 177 181 185 181 173 170 167 166 162 152 139 123 103 85 84 61 27 11 359 326 275 228 232 261 258 244 231 226 223 225 233 246 278 350 22 49 47 32 14 350 338 331 323 314 309 303 299 295 294 293 290 289 287
184 187 185 182 184 184 183 185 183 181 182 182 181 179 178 177 175 175 175 176 175 175 176 176 176 177 177 176 173 176 190 198 192 190 192 191 185 179 173 171 168 156 139 113 89 68 56 26 355 348 340 311 264 235 243 254 252 251 249 245 240 241 248 254 262 292 341 29 41 32 24 14 10 3 351 338 322 310 307 304 302 302 299 298 296
184 187 187 187 188 186 186 188 187 186 185 184 184 183 182 181 178 176 178 181 179 179 181 183 185 185 185 186 186 184 197 206 201 195 192 191 188 180 174 175 179 167 146 111 76 44 14 344 334 339 334 307 271 256 266 257 242 245 250 254 255 257 264 270 271 273 295 329 6 8 6 2 3 3 358 353 340 327 320 319 322 321 318 317 316
183 185 188 190 190 190 190 190 191 190 188 187 187 185 183 181 179 178 178 180 180 183 186 190 193 194 196 198 199 196 199 199 192 189 186 184 183 181 178 179 179 168 155 121 50 13 343 332 345 359 354 321 283 268 264 245 236 243 249 255 259 263 271 277 276 274 283 302 327 342 339 330 326 328 332 336 338 333 324 324 333 336 339 340 337
184 185 188 189 191 194 194 193 192 192 190 188 187 186 185 182 182 181 179 180 183 185 187 192 196 198 202 203 200 196 193 187 180 180 183 184 187 188 184 180 176 168 171 90 352 336 327 336 1 8 7 358 334 312 237 235 232 231 236 249 257 263 272 275 277 280 280 288 310 323 319 311 304 303 306 310 317 323 321 318 323 331 336 338 338
187 186 186 188 192 194 196 195 191 189 188 185 185 187 187 185 186 189 190 188 188 189 189 191 193 195 197 195 189 188 189 185 182 186 190 194 196 192 186 182 182 189 238 300 303 311 332 346 5 7 10 9 352 325 293 229 209 211 226 247 257 263 272 279 287 287 281 286 298 306 309 308 304 302 301 301 302 306 310 311 312 316 322 326 327
189 188 187 188 192 192 196 197 191 187 184 182 183 185 185 187 192 198 198 193 190 191 190 188 187 189 190 187 186 187 189 189 189 193 194 197 198 196 196 199 212 230 255 275 271 296 342 350 359 359 360 6 356 316 298 244 208 223 236 254 277 275 274 286 295 285 281 291 297 301 306 305 303 303 302 302 302 300 301 303 305 308 314 318 320
189 190 189 190 192 192 195 195 189 186 182 180 182 185 188 194 198 198 195 191 188 190 191 189 188 187 185 184 188 187 188 190 192 193 194 199 203 207 213 220 229 233 246 256 253 284 327 338 340 335 351 6 6 336 283 249 244 252 253 261 277 279 274 284 292 285 282 290 297 301 304 302 301 301 300 301 303 303 303 301 302 306 313 318 318
189 191 189 190 192 191 193 193 187 183 182 183 186 189 193 197 197 193 191 190 189 192 194 193 192 190 186 187 191 190 190 193 196 198 199 203 210 216 219 225 231 230 238 246 245 279 308 318 304 313 346 16 24 14 331 277 260 253 260 263 267 275 273 277 284 285 286 290 296 300 301 301 298 296 298 301 301 303 306 306 305 307 313 319 321
188 189 188 190 191 190 192 190 185 183 184 186 189 193 193 191 190 189 188 190 192 194 195 197 195 193 194 195 194 193 194 197 202 206 208 211 214 216 217 223 229 227 233 243 246 269 300 297 277 300 336 6 23 30 21 353 270 256 274 275 281 282 274 278 282 283 285 288 293 295 298 298 294 294 298 300 300 301 305 308 308 310 314 317 325
186 187 187 189 190 190 191 187 183 185 187 188 191 193 191 187 186 187 189 193 196 196 195 195 195 195 199 201 199 196 195 196 201 207 212 214 215 214 217 224 230 228 229 240 250 261 277 279 276 292 325 354 12 27 12 3 4 350 340 322 322 317 299 294 289 284 282 284 287 289 291 290 289 294 298 298 299 300 303 307 307 310 316 320 331
185 187 189 190 189 190 192 189 185 187 188 191 194 194 191 190 191 192 192 195 198 199 198 194 193 197 200 202 203 200 198 198 201 206 210 213 213 214 218 224 228 227 228 239 248 254 258 267 294 299 319 343 355 11 358 357 357 6 17 355 347 348 330 322 316 302 288 284 283 282 284 284 286 292 295 295 297 297 298 302 302 306 316 324 334
183 186 188 189 188 191 193 191 189 190 190 194 199 199 194 194 198 199 196 195 197 199 200 197 196 201 203 205 206 204 204 203 205 209 210 211 211 213 214 217 220 220 225 237 246 253 247 241 290 303 330 343 347 341 334 356 356 353 26 11 26 19 338 325 331 322 306 293 286 281 281 282 286 289 289 290 293 296 295 294 296 302 311 320 331
183 185 188 188 189 192 194 192 192 193 194 197 201 201 197 194 197 197 193 192 192 193 196 197 199 205 209 210 209 208 206 204 209 212 214 216 216 216 215 214 219 218 224 236 248 252 233 208 213 252 343 351 351 336 312 351 3 10 28 23 12 16 264 310 335 329 329 319 302 296 290 286 288 288 287 288 290 293 292 291 294 298 307 316 327
185 188 189 189 189 193 195 193 194 195 197 199 199 195 194 194 195 192 188 187 188 192 196 198 200 205 209 210 209 210 207 205 212 216 217 221 225 224 221 221 225 224 228 238 247 245 222 210 224 219 352 351 345 335 313 345 12 15 15 10 2 329 272 318 344 324 333 338 340 336 318 302 295 288 289 291 292 292 289 293 295 291 295 307 322
186 188 189 188 189 192 194 194 194 195 197 198 194 191 191 196 200 198 195 194 193 196 203 205 204 204 205 206 207 208 208 208 213 216 218 223 227 227 226 228 233 231 231 238 243 233 220 229 242 239 310 335 331 336 336 355 18 16 16 21 8 1 334 337 328 308 333 339 354 6 8 341 306 290 291 294 300 299 292 295 295 283 283 300 314
186 186 186 187 189 192 193 194 195 196 198 199 196 195 196 198 204 205 202 203 204 203 204 208 208 206 206 209 208 207 206 207 210 212 215 222 226 228 230 231 235 235 229 230 234 228 230 243 243 246 268 295 309 321 345 10 19 8 9 13 3 2 355 345 329 333 305 303 338 2 14 3 332 300 291 288 298 303 302 298 288 276 277 299 310
183 184 185 186 189 192 193 194 196 198 201 202 202 202 203 203 207 210 208 209 213 211 206 208 210 210 212 214 213 210 207 206 206 206 210 222 228 230 234 234 234 233 224 219 220 224 235 244 243 248 255 266 288 297 306 351 11 1 358 1 1 356 349 350 359 3 27 10 311 329 358 4 3 340 311 295 287 288 303 295 273 268 280 307 314
183 184 185 186 189 190 192 194 196 199 202 205 206 206 207 208 211 214 214 213 215 215 211 210 211 212 216 218 217 213 210 208 206 206 214 227 232 232 236 236 233 227 221 217 217 224 236 244 248 249 254 271 281 281 282 285 323 345 351 356 358 358 357 350 344 349 358 12 313 299 339 354 357 353 345 326 287 269 291 287 263 266 294 328 323
183 184 184 186 188 190 192 195 198 201 203 205 207 207 208 212 216 219 219 217 218 217 213 212 213 214 217 219 218 215 212 212 212 215 221 230 234 235 235 235 232 225 224 226 225 231 242 247 246 246 258 272 272 265 269 266 275 310 335 348 351 354 355 333 326 333 329 331 321 305 332 344 340 351 1 350 301 272 280 276 271 275 316 337 322
Height
822 821 822 822 823 823 825 825 826 826 826 827 827 827 827 828 828 828 829 829 829 829 829 829 829 828 828 827 826 827 828 828 828 829 829 829 830 830 831 831 832 832 833 833 833 833 834 835 836 836 836 837 837 837 838 838 839 839 839 840 840 840 840 841 841 842 842 842 842 842 842 842 841 841 841 841 841 841 841 841 841 842 842 842 842
821 822 822 823 824 824 826 826 827 827 827 828 827 828 828 829 829 830 830 830 830 830 830 830 830 830 829 828 828 828 829 829 829 830 830 831 831 832 833 833 833 834 834 834 834 834 835 835 836 836 837 838 838 838 839 840 840 840 841 841 841 842 842 842 843 843 843 843 843 843 843 843 843 842 843 843 843 843 843 843 843 843 843 844 843
820 822 822 823 825 825 827 827 828 828 828 828 829 829 829 830 830 831 830 831 830 830 831 830 831 830 830 830 830 830 830 830 830 830 831 832 833 833 834 834 834 835 835 835 835 835 836 836 837 837 837 838 839 840 840 841 841 841 842 842 842 843 843 843 844 844 844 844 844 844 844 844 844 843 844 844 844 845 844 845 844 844 844 844 845
821 822 823 824 825 827 827 828 829 829 829 829 830 830 830 831 831 831 831 831 831 831 831 831 831 831 831 831 831 831 831 832 832 832 832 832 833 834 834 835 835 836 836 836 836 836 837 837 838 838 838 839 840 840 841 842 842 843 843 843 844 844 845 845 845 845 845 845 845 845 845 845 845 845 845 845 846 846 846 846 846 845 845 845 846
822 823 824 825 826 827 828 829 830 830 831 831 831 831 832 832 832 832 832 832 832 832 832 832 832 832 832 832 833 833 833 833 833 833 833 833 834 835 835 836 836 837 837 838 837 837 838 838 839 839 839 840 840 841 842 842 843 844 844 845 845 845 846 846 846 846 846 846 846 846 847 847 847 847 847 847 847 847 847 847 847 846 846 847 847
822 823 825 826 827 828 830 830 831 832 832 832 833 833 833 833 833 833 833 833 833 833 833 833 833 833 833 834 835 834 834 835 834 834 834 834 835 836 836 837 838 838 839 839 838 838 839 839 840 840 840 841 841 842 843 843 844 845 846 846 846 847 847 847 847 847 847 847 848 848 848 848 848 848 848 848 848 848 848 848 848 847 848 848 849
823 824 826 827 828 829 831 831 832 833 833 834 834 834 834 834 834 834 834 834 834 834 834 834 833 834 835 836 836 835 836 836 835 835 835 836 836 837 837 838 839 839 840 840 839 840 840 840 841 841 841 842 843 843 844 845 846 846 847 847 847 848 848 848 848 849 849 849 849 849 850 850 850 849 849 849 850 850 849 849 849 849 849 850 850
824 825 827 828 830 831 832 832 833 834 834 835 835 835 835 835 835 835 834 834 834 835 835 835 835 835 835 837 837 836 838 838 836 835 836 836 837 838 838 839 840 840 840 840 840 840 841 841 842 842 843 843 845 846 847 847 848 848 848 848 849 849 850 850 850 850 850 850 851 851 851 851 851 851 851 851 851 851 851 851 850 850 851 851 852
825 826 828 829 830 832 833 833 834 834 835 835 836 836 836 836 836 835 835 835 835 836 836 836 836 836 836 837 838 837 839 840 839 837 837 838 838 839 840 840 841 841 841 841 841 841 842 843 844 844 845 845 847 849 850 850 850 850 850 850 850 851 851 852 852 852 852 852 852 852 852 852 852 852 852 852 852 852 852 852 852 852 852 853 853
826 827 829 830 831 833 833 834 835 835 836 836 836 836 837 837 837 836 836 836 837 837 837 837 837 837 837 838 838 839 840 840 840 840 840 840 840 840 841 841 842 842 842 842 842 843 843 845 846 847 848 848 850 851 852 852 852 852 851 852 852 852 853 853 853 854 854 853 853 853 853 853 853 853 854 854 854 853 853 853 853 853 854 854 854
827 828 830 831 833 833 834 835 835 836 836 837 837 837 838 837 837 837 837 837 838 838 838 838 838 838 838 838 839 840 840 840 840 841 842 841 842 842 842 843 843 843 843 843 843 844 845 846 848 849 849 851 852 852 853 854 854 853 853 853 854 854 854 854 855 855 855 855 855 855 855 855 855 855 855 855 855 855 855 855 855 855 855 855 856
828 830 831 832 833 834 835 836 836 837 837 837 838 838 838 838 838 838 838 839 838 839 839 839 839 839 839 839 840 841 842 840 840 842 842 842 843 843 844 844 844 844 844 844 845 846 847 848 850 851 851 852 854 854 855 855 854 854 854 854 855 855 856 856 856 856 856 856 856 856 856 856 856 856 856 857 856 856 856 856 856 856 856 856 857
829 831 832 833 834 835 836 837 837 837 838 838 839 839 839 839 839 839 839 840 840 840 840 840 840 840 840 840 842 843 844 842 841 842 842 841 842 844 844 845 845 845 846 847 847 847 848 850 852 854 854 854 855 856 856 855 855 855 855 856 856 856 857 857 857 857 857 857 857 857 858 857 858 858 858 858 857 857 857 857 857 857 857 857 857
830 831 832 834 835 836 836 838 838 838 839 839 840 840 840 840 840 840 840 840 840 841 841 841 841 841 841 841 842 844 845 845 844 844 844 843 843 844 845 846 846 847 848 848 848 849 850 851 854 855 857 856 856 856 856 856 856 856 856 857 857 857 858 858 858 858 859 859 859 859 859 859 859 859 859 859 858 858 858 858 858 858 858 858 858
831 832 833 835 835 837 837 838 838 839 840 840 841 841 841 841 841 841 841 842 842 842 842 842 841 841 841 842 842 844 846 847 846 847 848 847 847 847 848 848 848 849 849 850 850 850 851 852 854 855 857 857 856 856 856 857 857 857 858 858 858 859 859 859 859 860 860 860 860 860 860 860 860 860 860 859 859 859 859 859 859 859 859 859 859
832 833 834 835 836 837 838 839 839 840 841 841 842 842 842 842 842 843 843 843 843 843 843 843 843 843 843 844 844 844 846 847 847 848 848 849 849 849 850 850 850 851 851 851 852 852 853 853 854 855 857 858 858 858 857 858 858 859 859 859 860 860 860 860 861 861 861 861 861 861 861 861 861 861 861 860 860 860 860 860 860 860 860 860 860
833 835 835 836 837 838 839 840 841 841 842 842 842 843 843 843 844 844 844 844 844 844 845 845 845 845 845 845 845 845 846 846 846 847 848 849 849 850 850 851 852 852 853 853 854 854 854 855 855 856 857 859 859 860 859 860 860 860 861 861 861 861 862 862 862 862 862 862 862 862 862 862 862 862 861 861 861 861 861 861 861 861 861 861 861
834 836 836 837 838 839 840 841 842 842 842 843 844 844 844 845 845 845 845 845 845 846 846 846 847 847 847 846 846 846 847 847 847 847 848 849 850 851 851 852 853 854 854 855 856 856 856 857 857 858 859 860 861 861 862 862 862 862 862 862 862 863 863 863 863 863 863 863 863 863 863 863 862 862 862 862 862 862 861 861 861 862 862 862 861
835 836 837 838 839 840 841 842 842 842 843 844 845 845 846 846 847 847 847 847 847 847 848 848 848 849 848 847 847 847 848 848 848 849 850 851 851 852 853 854 855 855 856 856 857 858 858 859 859 860 860 861 862 862 863 863 863 863 863 863 863 864 864 864 864 864 864 864 864 864 863 863 863 863 863 863 863 862 862 862 862 862 862 862 862
836 837 838 839 839 841 841 842 843 844 845 845 847 847 847 848 848 849 848 848 848 849 849 849 849 849 849 849 848 848 849 850 851 851 851 852 853 854 855 855 856 857 858 858 858 859 860 861 861 862 862 862 863 863 864 864 864 864 864 864 865 865 865 865 865 865 865 865 865 865 864 864 864 864 864 864 863 863 863 863 863 863 863 863 863
837 838 839 840 840 842 842 843 844 845 846 846 848 848 849 849 850 851 850 850 850 850 850 850 850 850 850 850 850 850 851 852 853 854 854 854 855 856 856 857 858 859 859 859 860 860 861 862 863 863 863 864 864 864 865 865 865 865 866 866 866 866 866 866 866 866 866 866 866 865 865 865 865 865 865 865 864 864 864 864 864 864 863 863 863
837 838 840 841 841 842 843 844 845 846 847 847 849 849 850 850 851 852 851 851 851 851 851 852 852 852 852 852 852 852 853 854 854 855 856 857 857 858 858 859 859 860 860 861 862 862 863 864 864 865 865 865 866 866 866 866 866 867 867 867 866 866 866 866 866 866 866 866 866 866 866 866 866 866 865 865 865 865 865 864 864 864 864 863 863
837 838 840 841 842 843 844 845 846 846 847 848 849 850 851 851 851 852 852 852 852 852 853 853 854 854 854 854 855 855 855 856 856 857 858 859 859 860 860 860 861 861 862 862 863 864 864 865 866 866 866 867 867 867 867 867 867 867 867 867 867 867 867 867 867 867 867 867 867 867 867 867 866 866 866 866 866 865 865 865 865 864 864 864 864
837 838 840 841 843 843 845 846 846 847 848 849 850 850 851 852 852 852 853 853 853 854 854 855 855 856 856 856 857 857 857 857 858 859 859 860 861 861 862 862 862 863 863 864 865 865 866 867 867 867 868 868 868 868 869 869 868 868 868 868 867 867 867 867 867 867 867 867 867 867 867 867 867 867 867 866 866 866 866 865 865 865 864 864 864
837 839 840 841 843 844 845 846 847 848 848 849 850 851 852 852 853 853 854 854 855 855 855 856 857 857 857 858 858 858 859 859 860 860 861 862 862 863 863 863 864 864 865 866 866 867 868 868 869 869 869 869 869 870 870 869 869 869 868 868 868 868 868 868 868 868 868 868 868 868 867 867 867 867 867 867 866 866 866 865 865 865 865 864 864
838 839 840 842 843 844 846 846 848 848 849 850 851 852 852 853 854 854 855 855 856 856 857 858 858 859 859 859 860 860 860 861 861 862 863 863 864 864 864 865 865 866 867 867 868 869 869 870 870 870 870 870 870 870 870 870 870 869 869 869 869 868 868 868 868 868 868 868 868 868 868 867 867 867 867 867 866 866 866 865 865 865 865 865 864
838 839 840 842 843 845 846 847 848 849 850 851 851 852 853 854 855 855 856 857 857 858 858 859 859 860 860 861 861 861 862 862 863 863 864 865 865 866 866 867 867 868 868 869 870 870 871 871 871 871 871 871 871 871 871 871 870 870 869 869 869 869 869 869 868 868 868 868 868 868 868 868 867 867 867 867 866 866 866 866 865 865 865 865 865
838 840 841 842 844 845 846 847 848 849 850 851 852 853 854 854 855 856 857 858 858 859 859 860 860 861 861 862 862 863 863 864 864 865 866 866 867 867 868 868 869 869 870 870 871 871 871 872 872 871 871 871 871 871 870 870 870 870 870 869 869 869 869 869 869 868 868 868 868 868 868 868 867 867 867 867 866 866 866 866 865 865 865 865 865
838 839 841 842 844 845 846 848 848 849 850 851 852 853 854 855 856 857 858 859 859 860 861 861 861 862 862 863 863 864 865 865 866 866 867 868 868 869 869 870 870 870 871 871 871 871 872 872 872 871 871 871 870 870 870 870 870 870 870 869 869 869 869 869 869 869 868 868 868 868 868 868 867 867 867 867 867 866 866 866 865 865 865 865 865
839 839 841 842 844 845 846 848 849 850 851 852 853 854 855 855 856 857 859 860 860 861 861 862 862 863 863 864 865 866 866 867 868 868 868 869 869 870 870 871 871 871 872 872 872 872 872 872 872 871 871 871 871 871 870 870 870 870 870 870 869 869 870 870 870 869 869 869 868 868 868 868 868 867 867 867 867 867 866 866 866 865 865 865 865
839 840 841 842 843 845 846 848 849 850 851 852 853 854 855 856 857 858 859 860 861 861 862 863 863 864 864 865 866 867 868 868 869 869 870 870 870 871 871 871 872 872 872 872 872 872 872 872 872 872 872 871 871 871 871 871 870 870 870 870 870 870 870 870 870 870 869 869 869 868 868 868 868 868 867 867 867 867 867 866 866 866 865 865 864
839 840 841 842 843 844 846 848 849 850 852 853 854 855 855 856 858 858 859 860 861 862 862 863 864 865 865 866 867 867 868 869 870 870 871 871 871 872 872 872 872 872 873 873 873 873 873 873 872 872 872 872 872 871 871 871 870 870 870 870 870 870 870 870 870 870 870 870 869 869 869 869 868 868 868 868 867 867 867 867 866 866 865 865 864
838 840 841 842 843 844 846 847 849 850 852 853 854 855 856 857 858 859 860 861 861 862 863 864 864 865 866 866 867 868 869 869 870 871 871 872 872 872 873 873 873 873 873 873 873 873 873 873 873 873 872 872 872 872 872 871 871 871 870 870 870 870 871 871 871 871 871 870 870 870 869 869 869 869 869 868 868 868 867 867 866 866 865 865 864
838 840 841 842 843 844 846 847 849 850 851 853 854 855 856 857 858 859 860 861 862 863 863 864 865 865 866 867 868 868 869 870 870 871 872 872 872 873 873 873 873 873 873 873 873 873 873 873 873 872 872 872 872 872 872 871 871 871 871 871 871 871 871 871 871 871 871 871 871 870 870 870 870 869 869 869 869 868 868 867 866 866 865 865 864
838 839 841 842 843 844 845 847 848 850 851 853 854 855 857 857 859 859 860 861 862 863 863 864 865 865 866 867 868 868 869 870 871 871 872 873 873 873 874 874 874 874 874 874 874 874 874 873 873 873 872 872 872 872 872 871 871 871 871 871 871 871 871 871 872 871 871 871 871 871 871 870 870 870 870 869 869 869 868 867 867 866 866 865 865
837 839 840 842 843 844 845 847 848 850 851 853 854 856 857 858 859 860 860 861 862 863 863 864 865 866 867 867 868 869 869 870 871 872 872 873 873 874 874 874 874 874 875 874 875 874 874 874 873 873 873 873 872 872 872 872 872 872 871 871 871 872 872 872 872 872 872 871 871 871 871 871 870 870 870 870 869 869 868 868 867 867 866 866 865
837 839 840 842 843 844 846 847 848 850 851 853 854 855 857 858 859 860 861 861 862 863 864 864 865 866 867 867 868 869 870 871 871 872 873 873 874 874 874 875 875 875 875 875 875 875 875 875 874 874 873 873 873 872 872 872 872 872 872 872 872 872 872 872 872 872 872 872 871 871 871 871 871 871 870 870 869 869 869 868 868 867 867 866 866
837 838 840 842 843 844 846 847 848 850 851 853 854 856 857 858 859 860 861 861 862 863 864 864 865 866 866 867 868 869 870 871 872 872 873 874 874 874 875 875 875 875 875 875 875 876 875 875 874 874 874 873 873 873 873 873 872 872 873 873 873 872 872 872 872 872 872 872 872 872 871 871 871 871 870 870 870 869 869 868 868 867 867 867 866
836 838 840 842 843 845 846 847 848 850 851 853 854 856 857 858 859 860 861 861 862 863 864 865 865 866 866 867 868 869 870 871 872 872 873 874 874 874 875 875 875 875 876 876 876 876 875 875 875 874 874 874 873 873 873 873 873 873 873 873 873 873 873 873 873 872 872 872 872 872 871 871 871 870 870 870 869 869 869 868 868 868 867 867 866
836 838 840 842 843 845 846 847 848 850 851 853 854 855 856 857 858 859 860 861 862 863 864 865 865 866 866 867 868 869 870 871 872 872 873 874 874 874 875 875 875 875 876 876 876 876 876 876 875 875 875 874 874 873 873 873 873 873 873 874 874 874 873 873 873 872 872 872 872 872 871 871 871 870 870 870 870 869 869 869 868 868 867 866 866
835 838 839 841 843 844 846 847 848 850 851 852 853 855 855 856 858 859 860 860 862 863 863 864 865 866 867 867 868 869 870 870 871 872 873 873 874 874 875 875 875 876 876 876 876 876 876 876 876 876 875 875 874 874 874 874 874 874 874 874 874 874 874 873 873 873 872 872 872 872 871 871 870 870 870 870 869 869 869 869 868 868 867 866 866
835 837 839 841 843 844 845 847 848 849 850 852 853 854 855 856 857 858 859 860 861 862 863 864 865 866 867 867 868 869 870 870 871 872 873 873 874 874 875 875 875 876 876 876 876 876 876 876 876 876 876 875 875 875 875 875 874 875 874 874 874 874 873 873 873 873 872 872 872 871 871 871 870 869 870 869 869 869 869 869 868 868 867 867 866
833 836 838 840 842 844 845 846 848 849 850 851 852 853 854 856 857 858 859 860 861 862 863 864 865 866 867 867 868 869 870 870 871 872 873 873 874 874 874 875 875 875 876 876 876 877 877 877 877 877 876 876 876 875 876 875 875 875 875 876 877 876 875 873 872 873 872 872 871 871 871 870 870 869 869 869 869 869 869 869 868 868 867 867 866
833 835 837 839 841 843 845 846 847 849 850 851 852 853 855 856 857 858 859 860 861 862 864 864 865 866 866 867 868 869 870 870 871 872 872 873 873 874 874 875 875 875 876 876 876 877 877 877 877 877 877 876 876 876 876 876 876 876 877 878 878 879 880 876 872 871 871 871 871 870 871 870 869 869 869 869 869 869 869 869 868 868 867 867 866
832 833 835 837 839 842 844 845 847 848 849 851 852 853 855 856 857 858 859 860 861 862 864 864 865 866 866 867 867 868 869 870 871 872 872 873 873 874 874 874 875 875 875 876 876 877 877 877 877 877 877 877 877 876 876 876 877 877 877 879 880 882 882 878 875 873 870 871 871 870 870 870 869 869 869 868 868 868 868 868 868 868 868 867 866
830 832 834 835 838 840 843 845 846 848 850 851 852 853 854 856 856 857 858 859 860 861 862 863 864 865 866 866 867 868 869 870 871 872 872 873 873 874 874 874 875 875 875 876 876 877 877 877 877 878 878 877 877 877 877 877 877 877 877 878 879 881 880 877 878 877 872 870 870 870 870 869 868 868 868 868 868 868 868 868 868 868 867 867 866
829 831 834 835 837 839 842 844 845 847 849 851 852 853 854 855 856 857 857 858 859 860 861 862 863 864 865 866 867 868 869 870 870 871 872 873 873 874 874 874 875 875 875 876 876 877 877 877 878 878 878 878 878 878 877 877 877 878 878 878 878 878 878 877 878 879 878 874 871 870 870 869 868 868 868 868 868 868 868 868 868 867 867 867 866
828 831 833 835 837 839 841 843 845 847 849 850 852 852 853 854 855 856 857 858 859 860 861 862 863 864 865 866 867 867 868 869 870 871 872 872 873 874 874 874 875 875 875 875 876 877 877 877 878 878 878 878 878 878 878 878 878 878 878 878 878 878 878 877 877 878 880 879 874 871 870 869 868 868 868 868 868 868 868 868 868 868 867 867 867
827 830 832 834 836 838 840 842 844 846 848 850 851 852 853 854 855 856 857 858 859 860 861 862 863 864 865 866 867 867 868 869 870 870 871 872 873 873 874 874 874 875 875 875 876 876 877 877 878 878 878 878 879 878 878 878 878 878 878 878 878 878 877 877 877 877 877 879 878 874 871 870 869 868 868 868 868 868 868 868 868 868 868 867 867
827 829 831 834 836 838 840 841 843 845 847 849 850 852 853 854 855 855 856 858 859 860 861 862 863 864 865 866 866 867 868 868 869 870 871 871 872 873 873 874 874 875 875 875 876 876 877 877 878 878 878 879 879 879 878 878 878 878 879 879 878 878 878 877 877 877 876 877 878 875 873 872 871 869 869 868 868 868 868 868 868 868 868 867 868
826 829 831 833 835 837 839 840 842 844 846 848 850 851 853 853 854 855 856 857 858 860 861 862 862 863 864 865 866 867 867 868 869 869 870 871 871 872 873 873 874 875 875 875 876 876 877 877 878 878 878 878 878 878 879 879 879 879 879 879 879 879 879 878 877 877 877 877 877 876 874 873 872 871 870 869 869 869 869 868 868 869 869 868 868